Year,Month,Day,Hour,Minute,Value (Times are PST for windgust in km/hr)
2022,05,19,00,00,12.90
2022,05,19,00,01,19.30
2022,05,19,00,02,16.10
2022,05,19,00,03,14.50
2022,05,19,00,04,16.10
2022,05,19,00,05,12.90
2022,05,19,00,06,16.10
2022,05,19,00,07,14.50
2022,05,19,00,08,17.70
2022,05,19,00,09,11.30
2022,05,19,00,10,14.50
2022,05,19,00,11,11.30
2022,05,19,00,12,16.10
2022,05,19,00,13,14.50
2022,05,19,00,14,17.70
2022,05,19,00,15,14.50
2022,05,19,00,16,11.30
2022,05,19,00,17,14.50
2022,05,19,00,18,16.10
2022,05,19,00,19,16.10
2022,05,19,00,20,11.30
2022,05,19,00,21,11.30
2022,05,19,00,22,9.60
2022,05,19,00,23,12.90
2022,05,19,00,24,12.90
2022,05,19,00,25,12.90
2022,05,19,00,26,11.30
2022,05,19,00,27,11.30
2022,05,19,00,28,9.60
2022,05,19,00,29,12.90
2022,05,19,00,30,14.50
2022,05,19,00,31,16.10
2022,05,19,00,32,12.90
2022,05,19,00,33,12.90
2022,05,19,00,34,12.90
2022,05,19,00,35,11.30
2022,05,19,00,36,9.60
2022,05,19,00,37,11.30
2022,05,19,00,38,12.90
2022,05,19,00,39,11.30
2022,05,19,00,40,9.60
2022,05,19,00,41,12.90
2022,05,19,00,42,14.50
2022,05,19,00,43,16.10
2022,05,19,00,44,16.10
2022,05,19,00,45,14.50
2022,05,19,00,46,12.90
2022,05,19,00,47,14.50
2022,05,19,00,48,20.90
2022,05,19,00,49,16.10
2022,05,19,00,50,12.90
2022,05,19,00,51,16.10
2022,05,19,00,52,16.10
2022,05,19,00,53,14.50
2022,05,19,00,54,14.50
2022,05,19,00,55,14.50
2022,05,19,00,56,14.50
2022,05,19,00,57,17.70
2022,05,19,00,58,12.90
2022,05,19,00,59,17.70
2022,05,19,01,00,22.50
2022,05,19,01,01,16.10
2022,05,19,01,02,17.70
2022,05,19,01,03,14.50
2022,05,19,01,04,20.90
2022,05,19,01,05,11.30
2022,05,19,01,06,12.90
2022,05,19,01,07,12.90
2022,05,19,01,08,14.50
2022,05,19,01,09,9.60
2022,05,19,01,10,12.90
2022,05,19,01,11,17.70
2022,05,19,01,12,14.50
2022,05,19,01,13,16.10
2022,05,19,01,14,9.60
2022,05,19,01,15,12.90
2022,05,19,01,16,12.90
2022,05,19,01,17,14.50
2022,05,19,01,18,9.60
2022,05,19,01,19,9.60
2022,05,19,01,20,16.10
2022,05,19,01,21,20.90
2022,05,19,01,22,14.50
2022,05,19,01,23,8.10
2022,05,19,01,24,12.90
2022,05,19,01,25,14.50
2022,05,19,01,26,9.60
2022,05,19,01,27,9.60
2022,05,19,01,28,14.50
2022,05,19,01,29,12.90
2022,05,19,01,30,9.60
2022,05,19,01,31,14.50
2022,05,19,01,32,12.90
2022,05,19,01,33,8.10
2022,05,19,01,34,14.50
2022,05,19,01,35,9.60
2022,05,19,01,36,14.50
2022,05,19,01,37,8.10
2022,05,19,01,38,16.10
2022,05,19,01,39,9.60
2022,05,19,01,40,12.90
2022,05,19,01,41,9.60
2022,05,19,01,42,14.50
2022,05,19,01,43,9.60
2022,05,19,01,44,12.90
2022,05,19,01,45,8.10
2022,05,19,01,46,11.30
2022,05,19,01,47,11.30
2022,05,19,01,48,12.90
2022,05,19,01,49,8.10
2022,05,19,01,50,11.30
2022,05,19,01,51,6.40
2022,05,19,01,52,6.40
2022,05,19,01,53,8.10
2022,05,19,01,54,9.60
2022,05,19,01,55,9.60
2022,05,19,01,56,11.30
2022,05,19,01,57,12.90
2022,05,19,01,58,11.30
2022,05,19,01,59,12.90
2022,05,19,02,00,12.90
2022,05,19,02,01,6.40
2022,05,19,02,02,3.20
2022,05,19,02,03,6.40
2022,05,19,02,04,8.10
2022,05,19,02,05,8.10
2022,05,19,02,06,8.10
2022,05,19,02,07,12.90
2022,05,19,02,08,8.10
2022,05,19,02,09,11.30
2022,05,19,02,10,9.60
2022,05,19,02,11,11.30
2022,05,19,02,12,12.90
2022,05,19,02,13,8.10
2022,05,19,02,14,11.30
2022,05,19,02,15,12.90
2022,05,19,02,16,9.60
2022,05,19,02,17,6.40
2022,05,19,02,18,6.40
2022,05,19,02,19,12.90
2022,05,19,02,20,6.40
2022,05,19,02,21,9.60
2022,05,19,02,22,6.40
2022,05,19,02,23,9.60
2022,05,19,02,24,8.10
2022,05,19,02,25,6.40
2022,05,19,02,26,6.40
2022,05,19,02,27,6.40
2022,05,19,02,28,6.40
2022,05,19,02,29,12.90
2022,05,19,02,30,4.80
2022,05,19,02,31,8.10
2022,05,19,02,32,8.10
2022,05,19,02,33,8.10
2022,05,19,02,34,4.80
2022,05,19,02,35,3.20
2022,05,19,02,36,1.60
2022,05,19,02,37,3.20
2022,05,19,02,38,3.20
2022,05,19,02,39,4.80
2022,05,19,02,40,1.60
2022,05,19,02,41,4.80
2022,05,19,02,42,3.20
2022,05,19,02,43,3.20
2022,05,19,02,44,3.20
2022,05,19,02,45,1.60
2022,05,19,02,47,1.60
2022,05,19,02,48,1.60
2022,05,19,02,49,3.20
2022,05,19,02,51,1.60
2022,05,19,02,53,4.80
2022,05,19,02,54,3.20
2022,05,19,02,55,6.40
2022,05,19,02,56,4.80
2022,05,19,02,57,9.60
2022,05,19,02,58,9.60
2022,05,19,02,59,6.40
2022,05,19,03,00,6.40
2022,05,19,03,01,4.80
2022,05,19,03,02,3.20
2022,05,19,03,03,4.80
2022,05,19,03,04,6.40
2022,05,19,03,05,4.80
2022,05,19,03,06,1.60
2022,05,19,03,07,1.60
2022,05,19,03,08,3.20
2022,05,19,03,09,9.60
2022,05,19,03,10,8.10
2022,05,19,03,11,4.80
2022,05,19,03,12,8.10
2022,05,19,03,13,6.40
2022,05,19,03,14,6.40
2022,05,19,03,15,3.20
2022,05,19,03,16,4.80
2022,05,19,03,17,6.40
2022,05,19,03,18,4.80
2022,05,19,03,19,3.20
2022,05,19,03,21,3.20
2022,05,19,03,22,1.60
2022,05,19,03,24,4.80
2022,05,19,03,25,6.40
2022,05,19,03,26,6.40
2022,05,19,03,27,8.10
2022,05,19,03,28,9.60
2022,05,19,03,29,8.10
2022,05,19,03,30,11.30
2022,05,19,03,31,11.30
2022,05,19,03,32,9.60
2022,05,19,03,33,9.60
2022,05,19,03,34,8.10
2022,05,19,03,35,11.30
2022,05,19,03,36,9.60
2022,05,19,03,37,9.60
2022,05,19,03,38,8.10
2022,05,19,03,39,9.60
2022,05,19,03,40,9.60
2022,05,19,03,41,9.60
2022,05,19,03,42,8.10
2022,05,19,03,43,8.10
2022,05,19,03,44,11.30
2022,05,19,03,45,11.30
2022,05,19,03,46,12.90
2022,05,19,03,47,8.10
2022,05,19,03,48,11.30
2022,05,19,03,49,6.40
2022,05,19,03,50,8.10
2022,05,19,03,51,8.10
2022,05,19,03,52,6.40
2022,05,19,03,53,9.60
2022,05,19,03,54,8.10
2022,05,19,03,55,11.30
2022,05,19,03,56,9.60
2022,05,19,03,57,11.30
2022,05,19,03,58,9.60
2022,05,19,03,59,6.40
2022,05,19,04,00,8.10
2022,05,19,04,01,9.60
2022,05,19,04,02,4.80
2022,05,19,04,03,3.20
2022,05,19,04,04,9.60
2022,05,19,04,05,9.60
2022,05,19,04,06,8.10
2022,05,19,04,07,8.10
2022,05,19,04,08,8.10
2022,05,19,04,09,6.40
2022,05,19,04,10,11.30
2022,05,19,04,11,11.30
2022,05,19,04,12,11.30
2022,05,19,04,13,8.10
2022,05,19,04,14,8.10
2022,05,19,04,15,9.60
2022,05,19,04,16,8.10
2022,05,19,04,17,16.10
2022,05,19,04,18,9.60
2022,05,19,04,19,12.90
2022,05,19,04,20,11.30
2022,05,19,04,21,12.90
2022,05,19,04,22,12.90
2022,05,19,04,23,6.40
2022,05,19,04,24,8.10
2022,05,19,04,25,6.40
2022,05,19,04,26,6.40
2022,05,19,04,27,6.40
2022,05,19,04,28,6.40
2022,05,19,04,29,4.80
2022,05,19,04,30,8.10
2022,05,19,04,31,9.60
2022,05,19,04,32,9.60
2022,05,19,04,33,9.60
2022,05,19,04,34,8.10
2022,05,19,04,35,8.10
2022,05,19,04,36,11.30
2022,05,19,04,37,9.60
2022,05,19,04,38,8.10
2022,05,19,04,39,8.10
2022,05,19,04,40,14.50
2022,05,19,04,41,14.50
2022,05,19,04,42,12.90
2022,05,19,04,43,9.60
2022,05,19,04,44,14.50
2022,05,19,04,45,9.60
2022,05,19,04,46,9.60
2022,05,19,04,47,11.30
2022,05,19,04,48,8.10
2022,05,19,04,49,6.40
2022,05,19,04,50,6.40
2022,05,19,04,51,9.60
2022,05,19,04,52,6.40
2022,05,19,04,53,6.40
2022,05,19,04,54,3.20
2022,05,19,04,55,6.40
2022,05,19,04,56,6.40
2022,05,19,04,57,8.10
2022,05,19,04,58,8.10
2022,05,19,04,59,6.40
2022,05,19,05,00,8.10
2022,05,19,05,01,11.30
2022,05,19,05,02,8.10
2022,05,19,05,03,9.60
2022,05,19,05,04,11.30
2022,05,19,05,05,11.30
2022,05,19,05,06,8.10
2022,05,19,05,07,8.10
2022,05,19,05,08,8.10
2022,05,19,05,09,8.10
2022,05,19,05,10,8.10
2022,05,19,05,11,8.10
2022,05,19,05,12,8.10
2022,05,19,05,13,8.10
2022,05,19,05,14,6.40
2022,05,19,05,15,6.40
2022,05,19,05,16,9.60
2022,05,19,05,17,11.30
2022,05,19,05,18,8.10
2022,05,19,05,19,8.10
2022,05,19,05,20,8.10
2022,05,19,05,21,8.10
2022,05,19,05,22,4.80
2022,05,19,05,23,6.40
2022,05,19,05,24,6.40
2022,05,19,05,25,8.10
2022,05,19,05,26,6.40
2022,05,19,05,27,6.40
2022,05,19,05,28,4.80
2022,05,19,05,29,4.80
2022,05,19,05,30,3.20
2022,05,19,05,31,6.40
2022,05,19,05,32,8.10
2022,05,19,05,33,8.10
2022,05,19,05,34,6.40
2022,05,19,05,35,9.60
2022,05,19,05,36,8.10
2022,05,19,05,37,4.80
2022,05,19,05,38,8.10
2022,05,19,05,39,8.10
2022,05,19,05,40,8.10
2022,05,19,05,41,6.40
2022,05,19,05,42,6.40
2022,05,19,05,43,4.80
2022,05,19,05,44,9.60
2022,05,19,05,45,8.10
2022,05,19,05,46,8.10
2022,05,19,05,47,8.10
2022,05,19,05,48,11.30
2022,05,19,05,49,6.40
2022,05,19,05,50,8.10
2022,05,19,05,51,11.30
2022,05,19,05,52,9.60
2022,05,19,05,53,8.10
2022,05,19,05,54,9.60
2022,05,19,05,55,14.50
2022,05,19,05,56,12.90
2022,05,19,05,57,12.90
2022,05,19,05,58,6.40
2022,05,19,05,59,6.40
2022,05,19,06,00,8.10
2022,05,19,06,01,8.10
2022,05,19,06,02,9.60
2022,05,19,06,03,8.10
2022,05,19,06,04,11.30
2022,05,19,06,05,9.60
2022,05,19,06,06,8.10
2022,05,19,06,07,6.40
2022,05,19,06,08,4.80
2022,05,19,06,09,4.80
2022,05,19,06,10,6.40
2022,05,19,06,11,4.80
2022,05,19,06,12,4.80
2022,05,19,06,13,3.20
2022,05,19,06,14,6.40
2022,05,19,06,15,6.40
2022,05,19,06,16,4.80
2022,05,19,06,17,8.10
2022,05,19,06,18,4.80
2022,05,19,06,19,6.40
2022,05,19,06,20,6.40
2022,05,19,06,21,8.10
2022,05,19,06,22,6.40
2022,05,19,06,23,4.80
2022,05,19,06,24,4.80
2022,05,19,06,25,3.20
2022,05,19,06,26,6.40
2022,05,19,06,27,4.80
2022,05,19,06,28,1.60
2022,05,19,06,31,6.40
2022,05,19,06,32,6.40
2022,05,19,06,33,4.80
2022,05,19,06,34,4.80
2022,05,19,06,35,4.80
2022,05,19,06,36,8.10
2022,05,19,06,37,8.10
2022,05,19,06,38,6.40
2022,05,19,06,39,8.10
2022,05,19,06,40,8.10
2022,05,19,06,41,4.80
2022,05,19,06,42,6.40
2022,05,19,06,43,9.60
2022,05,19,06,44,12.90
2022,05,19,06,45,14.50
2022,05,19,06,46,12.90
2022,05,19,06,47,12.90
2022,05,19,06,48,14.50
2022,05,19,06,49,16.10
2022,05,19,06,50,12.90
2022,05,19,06,51,6.40
2022,05,19,06,52,6.40
2022,05,19,06,53,9.60
2022,05,19,06,54,8.10
2022,05,19,06,55,4.80
2022,05,19,06,56,1.60
2022,05,19,06,57,1.60
2022,05,19,06,58,1.60
2022,05,19,06,59,1.60
2022,05,19,07,00,4.80
2022,05,19,07,01,8.10
2022,05,19,07,02,4.80
2022,05,19,07,03,3.20
2022,05,19,07,04,4.80
2022,05,19,07,05,6.40
2022,05,19,07,06,8.10
2022,05,19,07,07,4.80
2022,05,19,07,08,6.40
2022,05,19,07,09,8.10
2022,05,19,07,10,8.10
2022,05,19,07,11,6.40
2022,05,19,07,12,4.80
2022,05,19,07,13,6.40
2022,05,19,07,14,4.80
2022,05,19,07,15,6.40
2022,05,19,07,16,6.40
2022,05,19,07,17,6.40
2022,05,19,07,18,9.60
2022,05,19,07,19,6.40
2022,05,19,07,20,8.10
2022,05,19,07,21,4.80
2022,05,19,07,22,3.20
2022,05,19,07,23,3.20
2022,05,19,07,24,3.20
2022,05,19,07,25,4.80
2022,05,19,07,31,1.60
2022,05,19,07,32,3.20
2022,05,19,07,33,3.20
2022,05,19,07,34,3.20
2022,05,19,07,36,1.60
2022,05,19,07,37,6.40
2022,05,19,07,38,3.20
2022,05,19,07,39,1.60
2022,05,19,07,40,1.60
2022,05,19,07,41,4.80
2022,05,19,07,42,4.80
2022,05,19,07,43,3.20
2022,05,19,07,44,4.80
2022,05,19,07,45,6.40
2022,05,19,07,46,4.80
2022,05,19,07,47,3.20
2022,05,19,07,48,3.20
2022,05,19,07,49,4.80
2022,05,19,07,50,9.60
2022,05,19,07,51,4.80
2022,05,19,07,52,6.40
2022,05,19,07,53,9.60
2022,05,19,07,54,8.10
2022,05,19,07,55,6.40
2022,05,19,07,56,4.80
2022,05,19,07,57,3.20
2022,05,19,07,58,6.40
2022,05,19,07,59,3.20
2022,05,19,08,00,4.80
2022,05,19,08,01,8.10
2022,05,19,08,02,6.40
2022,05,19,08,03,8.10
2022,05,19,08,04,6.40
2022,05,19,08,05,8.10
2022,05,19,08,06,9.60
2022,05,19,08,07,6.40
2022,05,19,08,08,6.40
2022,05,19,08,09,8.10
2022,05,19,08,10,8.10
2022,05,19,08,11,8.10
2022,05,19,08,12,3.20
2022,05,19,08,13,6.40
2022,05,19,08,14,4.80
2022,05,19,08,15,4.80
2022,05,19,08,16,4.80
2022,05,19,08,17,4.80
2022,05,19,08,18,4.80
2022,05,19,08,19,4.80
2022,05,19,08,20,1.60
2022,05,19,08,21,3.20
2022,05,19,08,22,6.40
2022,05,19,08,23,4.80
2022,05,19,08,24,1.60
2022,05,19,08,25,6.40
2022,05,19,08,26,8.10
2022,05,19,08,27,6.40
2022,05,19,08,28,3.20
2022,05,19,08,29,1.60
2022,05,19,08,30,3.20
2022,05,19,08,31,1.60
2022,05,19,08,32,1.60
2022,05,19,08,33,8.10
2022,05,19,08,34,8.10
2022,05,19,08,36,1.60
2022,05,19,08,37,3.20
2022,05,19,08,38,1.60
2022,05,19,08,39,3.20
2022,05,19,08,40,1.60
2022,05,19,08,41,1.60
2022,05,19,08,42,1.60
2022,05,19,08,43,1.60
2022,05,19,08,46,1.60
2022,05,19,08,47,4.80
2022,05,19,08,48,1.60
2022,05,19,08,49,6.40
2022,05,19,08,50,4.80
2022,05,19,08,51,4.80
2022,05,19,08,52,3.20
2022,05,19,08,53,1.60
2022,05,19,08,54,4.80
2022,05,19,08,55,9.60
2022,05,19,08,56,9.60
2022,05,19,08,57,3.20
2022,05,19,08,58,3.20
2022,05,19,08,59,3.20
2022,05,19,09,00,6.40
2022,05,19,09,01,6.40
2022,05,19,09,02,1.60
2022,05,19,09,03,3.20
2022,05,19,09,04,4.80
2022,05,19,09,05,3.20
2022,05,19,09,06,3.20
2022,05,19,09,07,3.20
2022,05,19,09,08,8.10
2022,05,19,09,09,6.40
2022,05,19,09,10,6.40
2022,05,19,09,11,8.10
2022,05,19,09,12,4.80
2022,05,19,09,13,3.20
2022,05,19,09,14,1.60
2022,05,19,09,15,1.60
2022,05,19,09,16,6.40
2022,05,19,09,17,6.40
2022,05,19,09,18,1.60
2022,05,19,09,19,4.80
2022,05,19,09,20,3.20
2022,05,19,09,21,4.80
2022,05,19,09,22,3.20
2022,05,19,09,23,4.80
2022,05,19,09,24,1.60
2022,05,19,09,25,3.20
2022,05,19,09,26,3.20
2022,05,19,09,27,3.20
2022,05,19,09,28,1.60
2022,05,19,09,29,1.60
2022,05,19,09,30,6.40
2022,05,19,09,31,4.80
2022,05,19,09,32,4.80
2022,05,19,09,33,6.40
2022,05,19,09,34,3.20
2022,05,19,09,35,4.80
2022,05,19,09,36,8.10
2022,05,19,09,37,6.40
2022,05,19,09,38,6.40
2022,05,19,09,39,8.10
2022,05,19,09,40,6.40
2022,05,19,09,41,8.10
2022,05,19,09,42,4.80
2022,05,19,09,43,8.10
2022,05,19,09,44,6.40
2022,05,19,09,45,3.20
2022,05,19,09,46,3.20
2022,05,19,09,47,1.60
2022,05,19,09,48,6.40
2022,05,19,09,49,8.10
2022,05,19,09,50,6.40
2022,05,19,09,51,1.60
2022,05,19,09,52,4.80
2022,05,19,09,53,4.80
2022,05,19,09,54,6.40
2022,05,19,09,55,1.60
2022,05,19,09,56,4.80
2022,05,19,09,57,3.20
2022,05,19,09,58,6.40
2022,05,19,09,59,9.60
2022,05,19,10,00,6.40
2022,05,19,10,01,4.80
2022,05,19,10,02,6.40
2022,05,19,10,03,6.40
2022,05,19,10,04,4.80
2022,05,19,10,05,8.10
2022,05,19,10,06,6.40
2022,05,19,10,07,1.60
2022,05,19,10,08,1.60
2022,05,19,10,10,3.20
2022,05,19,10,11,8.10
2022,05,19,10,12,8.10
2022,05,19,10,13,8.10
2022,05,19,10,14,6.40
2022,05,19,10,15,1.60
2022,05,19,10,16,1.60
2022,05,19,10,17,1.60
2022,05,19,10,18,6.40
2022,05,19,10,19,6.40
2022,05,19,10,20,6.40
2022,05,19,10,21,6.40
2022,05,19,10,22,6.40
2022,05,19,10,23,4.80
2022,05,19,10,24,1.60
2022,05,19,10,25,1.60
2022,05,19,10,26,3.20
2022,05,19,10,27,4.80
2022,05,19,10,28,6.40
2022,05,19,10,29,4.80
2022,05,19,10,30,4.80
2022,05,19,10,31,1.60
2022,05,19,10,32,1.60
2022,05,19,10,33,3.20
2022,05,19,10,34,3.20
2022,05,19,10,35,3.20
2022,05,19,10,36,1.60
2022,05,19,10,37,1.60
2022,05,19,10,38,1.60
2022,05,19,10,39,1.60
2022,05,19,10,40,3.20
2022,05,19,10,41,4.80
2022,05,19,10,42,3.20
2022,05,19,10,43,4.80
2022,05,19,10,44,1.60
2022,05,19,10,45,3.20
2022,05,19,10,46,1.60
2022,05,19,10,47,6.40
2022,05,19,10,48,4.80
2022,05,19,10,49,3.20
2022,05,19,10,50,1.60
2022,05,19,10,51,4.80
2022,05,19,10,52,4.80
2022,05,19,10,53,3.20
2022,05,19,10,54,1.60
2022,05,19,10,55,3.20
2022,05,19,10,56,1.60
2022,05,19,10,57,1.60
2022,05,19,10,58,4.80
2022,05,19,10,59,3.20
2022,05,19,11,00,4.80
2022,05,19,11,01,1.60
2022,05,19,11,02,1.60
2022,05,19,11,03,8.10
2022,05,19,11,04,3.20
2022,05,19,11,05,4.80
2022,05,19,11,06,4.80
2022,05,19,11,07,4.80
2022,05,19,11,08,3.20
2022,05,19,11,09,3.20
2022,05,19,11,10,6.40
2022,05,19,11,11,1.60
2022,05,19,11,12,1.60
2022,05,19,11,13,1.60
2022,05,19,11,14,3.20
2022,05,19,11,15,4.80
2022,05,19,11,16,1.60
2022,05,19,11,17,8.10
2022,05,19,11,18,3.20
2022,05,19,11,19,4.80
2022,05,19,11,20,4.80
2022,05,19,11,21,6.40
2022,05,19,11,22,1.60
2022,05,19,11,23,11.30
2022,05,19,11,24,8.10
2022,05,19,11,25,4.80
2022,05,19,11,26,8.10
2022,05,19,11,27,4.80
2022,05,19,11,28,6.40
2022,05,19,11,29,9.60
2022,05,19,11,30,6.40
2022,05,19,11,31,6.40
2022,05,19,11,32,4.80
2022,05,19,11,33,1.60
2022,05,19,11,34,3.20
2022,05,19,11,35,3.20
2022,05,19,11,36,1.60
2022,05,19,11,37,1.60
2022,05,19,11,38,1.60
2022,05,19,11,39,1.60
2022,05,19,11,40,3.20
2022,05,19,11,41,4.80
2022,05,19,11,42,4.80
2022,05,19,11,43,8.10
2022,05,19,11,44,3.20
2022,05,19,11,45,3.20
2022,05,19,11,46,3.20
2022,05,19,11,47,1.60
2022,05,19,11,48,1.60
2022,05,19,11,49,4.80
2022,05,19,11,50,1.60
2022,05,19,11,51,1.60
2022,05,19,11,52,1.60
2022,05,19,11,53,3.20
2022,05,19,11,54,1.60
2022,05,19,11,55,3.20
2022,05,19,11,56,8.10
2022,05,19,11,57,3.20
2022,05,19,11,58,1.60
2022,05,19,11,59,1.60
2022,05,19,12,00,1.60
2022,05,19,12,02,1.60
2022,05,19,12,03,1.60
2022,05,19,12,04,1.60
2022,05,19,12,05,1.60
2022,05,19,12,06,1.60
2022,05,19,12,07,1.60
2022,05,19,12,08,1.60
2022,05,19,12,09,1.60
2022,05,19,12,10,4.80
2022,05,19,12,11,9.60
2022,05,19,12,12,8.10
2022,05,19,12,13,6.40
2022,05,19,12,14,3.20
2022,05,19,12,15,4.80
2022,05,19,12,16,3.20
2022,05,19,12,17,4.80
2022,05,19,12,18,4.80
2022,05,19,12,19,1.60
2022,05,19,12,20,4.80
2022,05,19,12,21,8.10
2022,05,19,12,22,3.20
2022,05,19,12,23,9.60
2022,05,19,12,24,9.60
2022,05,19,12,25,6.40
2022,05,19,12,26,6.40
2022,05,19,12,27,1.60
2022,05,19,12,28,1.60
2022,05,19,12,29,3.20
2022,05,19,12,30,8.10
2022,05,19,12,31,4.80
2022,05,19,12,32,8.10
2022,05,19,12,33,8.10
2022,05,19,12,34,9.60
2022,05,19,12,35,9.60
2022,05,19,12,36,6.40
2022,05,19,12,37,6.40
2022,05,19,12,38,11.30
2022,05,19,12,39,6.40
2022,05,19,12,40,4.80
2022,05,19,12,41,9.60
2022,05,19,12,42,9.60
2022,05,19,12,43,6.40
2022,05,19,12,44,1.60
2022,05,19,12,45,4.80
2022,05,19,12,46,6.40
2022,05,19,12,47,4.80
2022,05,19,12,48,3.20
2022,05,19,12,49,3.20
2022,05,19,12,50,3.20
2022,05,19,12,51,3.20
2022,05,19,12,52,3.20
2022,05,19,12,53,3.20
2022,05,19,12,54,4.80
2022,05,19,12,55,4.80
2022,05,19,12,56,3.20
2022,05,19,12,57,3.20
2022,05,19,12,58,3.20
2022,05,19,12,59,3.20
2022,05,19,13,00,3.20
2022,05,19,13,01,6.40
2022,05,19,13,02,4.80
2022,05,19,13,03,9.60
2022,05,19,13,04,6.40
2022,05,19,13,05,6.40
2022,05,19,13,06,4.80
2022,05,19,13,07,6.40
2022,05,19,13,08,9.60
2022,05,19,13,09,8.10
2022,05,19,13,10,11.30
2022,05,19,13,11,8.10
2022,05,19,13,12,9.60
2022,05,19,13,13,9.60
2022,05,19,13,14,6.40
2022,05,19,13,15,11.30
2022,05,19,13,16,11.30
2022,05,19,13,17,4.80
2022,05,19,13,18,3.20
2022,05,19,13,19,1.60
2022,05,19,13,20,3.20
2022,05,19,13,21,6.40
2022,05,19,13,22,9.60
2022,05,19,13,23,9.60
2022,05,19,13,24,9.60
2022,05,19,13,25,8.10
2022,05,19,13,26,6.40
2022,05,19,13,27,9.60
2022,05,19,13,28,8.10
2022,05,19,13,29,8.10
2022,05,19,13,30,8.10
2022,05,19,13,31,3.20
2022,05,19,13,32,6.40
2022,05,19,13,33,8.10
2022,05,19,13,34,9.60
2022,05,19,13,35,12.90
2022,05,19,13,36,8.10
2022,05,19,13,37,8.10
2022,05,19,13,38,9.60
2022,05,19,13,39,9.60
2022,05,19,13,40,11.30
2022,05,19,13,41,11.30
2022,05,19,13,42,16.10
2022,05,19,13,43,8.10
2022,05,19,13,44,8.10
2022,05,19,13,45,6.40
2022,05,19,13,46,11.30
2022,05,19,13,47,9.60
2022,05,19,13,48,9.60
2022,05,19,13,49,11.30
2022,05,19,13,50,11.30
2022,05,19,13,51,8.10
2022,05,19,13,52,12.90
2022,05,19,13,53,8.10
2022,05,19,13,54,8.10
2022,05,19,13,55,11.30
2022,05,19,13,56,8.10
2022,05,19,13,57,9.60
2022,05,19,13,58,8.10
2022,05,19,13,59,8.10
2022,05,19,14,00,14.50
2022,05,19,14,01,14.50
2022,05,19,14,02,11.30
2022,05,19,14,03,9.60
2022,05,19,14,04,11.30
2022,05,19,14,05,8.10
2022,05,19,14,06,11.30
2022,05,19,14,07,8.10
2022,05,19,14,08,9.60
2022,05,19,14,09,6.40
2022,05,19,14,10,11.30
2022,05,19,14,11,9.60
2022,05,19,14,12,8.10
2022,05,19,14,13,9.60
2022,05,19,14,14,9.60
2022,05,19,14,15,9.60
2022,05,19,14,16,8.10
2022,05,19,14,17,8.10
2022,05,19,14,18,9.60
2022,05,19,14,19,9.60
2022,05,19,14,20,8.10
2022,05,19,14,21,6.40
2022,05,19,14,22,9.60
2022,05,19,14,23,8.10
2022,05,19,14,24,11.30
2022,05,19,14,25,8.10
2022,05,19,14,26,6.40
2022,05,19,14,27,8.10
2022,05,19,14,28,8.10
2022,05,19,14,29,8.10
2022,05,19,14,30,8.10
2022,05,19,14,31,6.40
2022,05,19,14,32,4.80
2022,05,19,14,33,1.60
2022,05,19,14,34,4.80
2022,05,19,14,35,3.20
2022,05,19,14,36,8.10
2022,05,19,14,37,4.80
2022,05,19,14,38,1.60
2022,05,19,14,39,3.20
2022,05,19,14,40,4.80
2022,05,19,14,41,8.10
2022,05,19,14,42,8.10
2022,05,19,14,43,6.40
2022,05,19,14,44,6.40
2022,05,19,14,45,9.60
2022,05,19,14,46,9.60
2022,05,19,14,47,6.40
2022,05,19,14,48,4.80
2022,05,19,14,49,3.20
2022,05,19,14,50,4.80
2022,05,19,14,51,9.60
2022,05,19,14,52,9.60
2022,05,19,14,53,8.10
2022,05,19,14,54,9.60
2022,05,19,14,55,8.10
2022,05,19,14,57,3.20
2022,05,19,14,58,3.20
2022,05,19,14,59,1.60
2022,05,19,15,00,1.60
2022,05,19,15,01,1.60
2022,05,19,15,02,4.80
2022,05,19,15,03,3.20
2022,05,19,15,04,6.40
2022,05,19,15,05,4.80
2022,05,19,15,06,1.60
2022,05,19,15,07,3.20
2022,05,19,15,08,1.60
2022,05,19,15,09,1.60
2022,05,19,15,10,4.80
2022,05,19,15,11,3.20
2022,05,19,15,12,1.60
2022,05,19,15,13,3.20
2022,05,19,15,14,3.20
2022,05,19,15,15,3.20
2022,05,19,15,16,6.40
2022,05,19,15,17,3.20
2022,05,19,15,18,4.80
2022,05,19,15,19,3.20
2022,05,19,15,20,3.20
2022,05,19,15,21,1.60
2022,05,19,15,22,4.80
2022,05,19,15,23,6.40
2022,05,19,15,24,1.60
2022,05,19,15,25,3.20
2022,05,19,15,27,4.80
2022,05,19,15,28,8.10
2022,05,19,15,29,6.40
2022,05,19,15,30,6.40
2022,05,19,15,31,4.80
2022,05,19,15,32,11.30
2022,05,19,15,33,6.40
2022,05,19,15,34,4.80
2022,05,19,15,35,6.40
2022,05,19,15,36,6.40
2022,05,19,15,37,11.30
2022,05,19,15,38,9.60
2022,05,19,15,39,8.10
2022,05,19,15,40,9.60
2022,05,19,15,41,4.80
2022,05,19,15,42,8.10
2022,05,19,15,43,4.80
2022,05,19,15,44,8.10
2022,05,19,15,45,8.10
2022,05,19,15,46,8.10
2022,05,19,15,47,6.40
2022,05,19,15,48,4.80
2022,05,19,15,49,3.20
2022,05,19,15,50,4.80
2022,05,19,15,51,6.40
2022,05,19,15,52,4.80
2022,05,19,15,53,6.40
2022,05,19,15,54,4.80
2022,05,19,15,55,3.20
2022,05,19,15,56,1.60
2022,05,19,15,57,3.20
2022,05,19,15,58,3.20
2022,05,19,15,59,3.20
2022,05,19,16,02,1.60
2022,05,19,16,04,1.60
2022,05,19,16,05,3.20
2022,05,19,16,06,8.10
2022,05,19,16,07,6.40
2022,05,19,16,08,1.60
2022,05,19,16,09,4.80
2022,05,19,16,10,3.20
2022,05,19,16,13,1.60
2022,05,19,16,14,1.60
2022,05,19,16,15,1.60
2022,05,19,16,16,1.60
2022,05,19,16,17,3.20
2022,05,19,16,18,3.20
2022,05,19,16,19,3.20
2022,05,19,16,20,3.20
2022,05,19,16,21,1.60
2022,05,19,16,22,1.60
2022,05,19,16,23,1.60
2022,05,19,16,24,1.60
2022,05,19,16,25,4.80
2022,05,19,16,26,4.80
2022,05,19,16,27,3.20
2022,05,19,16,28,4.80
2022,05,19,16,29,1.60
2022,05,19,16,31,1.60
2022,05,19,16,32,1.60
2022,05,19,16,33,3.20
2022,05,19,16,34,1.60
2022,05,19,16,35,1.60
2022,05,19,16,36,1.60
2022,05,19,16,37,3.20
2022,05,19,16,38,3.20
2022,05,19,16,39,1.60
2022,05,19,16,40,1.60
2022,05,19,16,41,3.20
2022,05,19,16,42,3.20
2022,05,19,16,43,4.80
2022,05,19,16,44,3.20
2022,05,19,16,45,4.80
2022,05,19,16,46,4.80
2022,05,19,16,48,3.20
2022,05,19,16,49,1.60
2022,05,19,16,50,1.60
2022,05,19,16,51,1.60
2022,05,19,16,52,3.20
2022,05,19,16,53,3.20
2022,05,19,16,54,3.20
2022,05,19,16,55,4.80
2022,05,19,16,56,3.20
2022,05,19,16,57,1.60
2022,05,19,16,58,1.60
2022,05,19,17,01,1.60
2022,05,19,17,02,4.80
2022,05,19,17,03,3.20
2022,05,19,17,04,1.60
2022,05,19,17,05,1.60
2022,05,19,17,06,1.60
2022,05,19,17,07,1.60
2022,05,19,17,08,1.60
2022,05,19,17,09,1.60
2022,05,19,17,11,3.20
2022,05,19,17,12,4.80
2022,05,19,17,13,1.60
2022,05,19,17,14,1.60
2022,05,19,17,15,3.20
2022,05,19,17,16,1.60
2022,05,19,17,17,1.60
2022,05,19,17,18,1.60
2022,05,19,17,19,4.80
2022,05,19,17,20,1.60
2022,05,19,17,21,3.20
2022,05,19,17,22,6.40
2022,05,19,17,23,1.60
2022,05,19,17,24,3.20
2022,05,19,17,25,3.20
2022,05,19,17,27,3.20
2022,05,19,17,28,8.10
2022,05,19,17,29,4.80
2022,05,19,17,30,3.20
2022,05,19,17,31,1.60
2022,05,19,17,32,1.60
2022,05,19,17,33,1.60
2022,05,19,17,34,1.60
2022,05,19,17,35,1.60
2022,05,19,17,36,1.60
2022,05,19,17,37,1.60
2022,05,19,17,38,3.20
2022,05,19,17,40,1.60
2022,05,19,17,41,1.60
2022,05,19,17,42,4.80
2022,05,19,17,43,1.60
2022,05,19,17,44,1.60
2022,05,19,17,45,1.60
2022,05,19,17,46,1.60
2022,05,19,17,47,1.60
2022,05,19,17,48,1.60
2022,05,19,17,49,1.60
2022,05,19,17,51,1.60
2022,05,19,17,53,3.20
2022,05,19,17,54,1.60
2022,05,19,17,55,1.60
2022,05,19,17,56,1.60
2022,05,19,17,57,1.60
2022,05,19,17,58,1.60
2022,05,19,17,59,3.20
2022,05,19,18,00,1.60
2022,05,19,18,03,1.60
2022,05,19,18,05,1.60
2022,05,19,18,06,3.20
2022,05,19,18,07,3.20
2022,05,19,18,08,3.20
2022,05,19,18,09,3.20
2022,05,19,18,10,4.80
2022,05,19,18,11,3.20
2022,05,19,18,12,4.80
2022,05,19,18,13,3.20
2022,05,19,18,14,4.80
2022,05,19,18,15,3.20
2022,05,19,18,16,1.60
2022,05,19,18,18,1.60
2022,05,19,18,19,1.60
2022,05,19,18,20,1.60
2022,05,19,18,21,1.60
2022,05,19,18,23,1.60
2022,05,19,18,24,1.60
2022,05,19,18,25,1.60
2022,05,19,18,26,1.60
2022,05,19,18,27,3.20
2022,05,19,18,28,1.60
2022,05,19,18,29,1.60
2022,05,19,18,30,1.60
2022,05,19,18,31,1.60
2022,05,19,18,32,3.20
2022,05,19,18,33,1.60
2022,05,19,18,34,3.20
2022,05,19,18,35,4.80
2022,05,19,18,36,3.20
2022,05,19,18,37,3.20
2022,05,19,18,38,1.60